Regional Weather Roundup
Issued by NWS

Home | Current Version | Previous Version | Graphics & Text | Print | Product List | Glossary On
Versions: 1 2 3 4 5 6 7 8 9 10 11 12 13 14 15 16 17 18 19 20 21 22 23 24 25 26 27 28 29 30 31 32 33 34 35 36 37 38 39 40 41 42 43 44 45 46 47 48 49 50
000
ASUS45 KCYS 241010
RWRWY

WYOMING REGIONAL WEATHER ROUNDUP
NATIONAL WEATHER SERVICE CHEYENNE WY
300 AM MST SAT JAN 24 2015

NOTE:  "FAIR" INDICATES FEW OR NO CLOUDS BELOW 12,000 FEET
WITH NO SIGNIFICANT WEATHER AND/OR OBSTRUCTIONS TO VISIBILITY.

WYZ001-241100-
YELLOWSTONE NATIONAL PARK

CITY           SKY/WX    TMP DP  RH WIND       PRES   REMARKS
LK YELLOWSTONE   N/A     10   6  84 CALM      30.38F
W YELLOWSTONE  NOT AVBL

$$
WYZ002>013-054>058-071-098>099-241100-
NORTHERN WYOMING

CITY           SKY/WX    TMP DP  RH WIND       PRES   REMARKS
JACKSON        FAIR       5   3  92 NE3       30.45R
CODY           FAIR      41  18  38 W20G30    30.09F
GREYBULL       FAIR      12  11  95 S3        30.15F
WORLAND        FAIR      10   5  80 CALM      30.15F
SHERIDAN       FAIR      30  18  60 S3        29.97F
BUFFALO        FAIR      36  19  50 S7        29.99F WCI  30
GILLETTE       FAIR      35  22  58 SW18      29.98F WCI  24
HULETT           N/A    N/A N/A N/A MISG        N/A
NEWCASTLE      FAIR      21  19  93 CALM      30.04F

$$
WYZ014>020-022>026-101>103-241100-
CENTRAL WYOMING

CITY           SKY/WX    TMP DP  RH WIND       PRES   REMARKS
BIG PINEY      FAIR       5   1  83 NW6       30.36R WCI  -6
PINEDALE       FAIR       5   3  92 W7        30.35S WCI  -7
DUBOIS         FAIR      30  14  51 NW10G17   30.24S WCI  21
LANDER         FAIR      15  12  88 NW9       30.16F WCI   3
RIVERTON       FAIR      17  13  84 SW9       30.17S WCI   6
CASPER         FAIR      31  19  61 SW23G33   30.13F WCI  18
DOUGLAS        FAIR      24  19  81 NW5       30.09F WCI  18

$$
WYZ021-027>030-104>119-241100-
SOUTHERN WYOMING

CITY           SKY/WX    TMP DP  RH WIND       PRES   REMARKS
EVANSTON       FAIR      16  12  84 SW10      30.41R WCI   4
FORT BRIDGER   FAIR      25  19  76 W16G22    30.39R WCI  12
ROCK SPRINGS   FAIR      22  16  78 SW14      30.32F WCI   9
DIXON          FAIR      11   6  79 CALM      30.42R
RAWLINS        FAIR      23  13  65 VRB7      30.31S WCI  15
SARATOGA       FAIR      12   9  85 CALM      30.34R
LARAMIE        FAIR      17  10  74 W3        30.20R
CHEYENNE       FAIR      33  13  43 NW14      30.11R WCI  23
TORRINGTON     FAIR      28  20  71 W8        30.09F WCI  20
PINE BLUFFS    FAIR      19  16  86 CALM      30.13S

$$


USA.gov is the U.S. government's official web portal to all federal, state and local government web resources and services.